{"data":{"norad_id":59153,"epoch":"2026-05-24T20:13:36.142752Z","epoch_age_seconds":91782,"freshness":"FRESH","line1":"1 59153U 24044B   26144.84277943  .00001641  00000+0  69129-4 0  9990","line2":"2 59153  43.0034 350.1237 0001346 274.6941  85.3757 15.27592649125796","mean_motion":15.27592649,"eccentricity":0.0001346,"inclination_deg":43.0034,"raan_deg":350.1237,"arg_perigee_deg":274.6941,"mean_anomaly_deg":85.3757,"bstar":6.9129e-5,"rev_number":12579,"period_min":94.265968152089,"perigee_km":482.08771009405,"apogee_km":483.93473119505,"semimajor_km":6861.1482206446,"source":"CELESTRAK","updated_at":"2026-05-25T13:38:18.832407Z"}}